Time,TemperatureF,DewpointF,PressureIn,WindDirection,WindDirectionDegrees,WindSpeedMPH,WindSpeedGustMPH,Humidity,HourlyPrecipIn,Conditions,Clouds,dailyrainin,SoftwareType,DateUTC
2013-04-16 00:10:00,51.9,0.0,29.99,West,270,4.0,10.0,0,0.00,,,0.00,Weather View 32 v70,2013-04-16 07:10:00,
2013-04-16 00:20:00,51.3,0.0,29.99,West,276,3.0,10.0,0,0.00,,,0.00,Weather View 32 v70,2013-04-16 07:20:00,
2013-04-16 00:30:00,51.4,0.0,29.99,WSW,240,3.0,10.0,0,0.00,,,0.00,Weather View 32 v70,2013-04-16 07:30:00,
2013-04-16 00:40:00,51.3,0.0,29.99,WSW,253,3.0,10.0,0,0.00,,,0.00,Weather View 32 v70,2013-04-16 07:40:00,
2013-04-16 00:50:00,50.9,0.0,30.00,West,271,0.0,9.0,0,0.00,,,0.00,Weather View 32 v70,2013-04-16 07:50:00,
2013-04-16 01:00:00,50.6,0.0,30.00,WNW,291,6.0,8.0,0,0.00,,,0.00,Weather View 32 v70,2013-04-16 08:00:00,
2013-04-16 01:10:00,50.8,0.0,30.01,WSW,248,7.0,10.0,0,0.00,,,0.00,Weather View 32 v70,2013-04-16 08:10:00,
2013-04-16 01:20:00,50.7,0.0,30.01,West,280,3.0,10.0,0,0.00,,,0.00,Weather View 32 v70,2013-04-16 08:20:00,
2013-04-16 01:30:00,50.8,0.0,30.01,West,280,1.0,10.0,0,0.00,,,0.00,Weather View 32 v70,2013-04-16 08:30:00,
2013-04-16 01:40:00,50.5,0.0,30.01,NW,309,6.0,10.0,0,0.00,,,0.00,Weather View 32 v70,2013-04-16 08:40:00,
2013-04-16 01:50:00,50.2,0.0,30.01,WSW,255,4.0,11.0,0,0.00,,,0.00,Weather View 32 v70,2013-04-16 08:50:00,
2013-04-16 02:00:00,50.4,0.0,30.01,West,269,5.0,14.0,0,0.00,,,0.00,Weather View 32 v70,2013-04-16 09:00:00,
2013-04-16 02:10:00,50.4,0.0,30.01,NW,315,2.0,14.0,0,0.00,,,0.00,Weather View 32 v70,2013-04-16 09:10:00,
2013-04-16 02:20:00,50.5,0.0,30.01,West,281,4.0,14.0,0,0.00,,,0.00,Weather View 32 v70,2013-04-16 09:20:00,
2013-04-16 02:30:00,50.4,0.0,30.01,WNW,284,4.0,14.0,0,0.00,,,0.00,Weather View 32 v70,2013-04-16 09:30:00,
2013-04-16 02:40:00,50.3,0.0,30.01,West,270,2.0,14.0,0,0.00,,,0.00,Weather View 32 v70,2013-04-16 09:40:00,
2013-04-16 02:50:00,50.3,0.0,30.01,West,262,3.0,14.0,0,0.00,,,0.00,Weather View 32 v70,2013-04-16 09:50:00,
2013-04-16 03:00:00,50.1,0.0,30.01,WSW,252,6.0,14.0,0,0.00,,,0.00,Weather View 32 v70,2013-04-16 10:00:00,
2013-04-16 03:10:00,50.6,0.0,30.01,West,277,0.0,12.0,0,0.00,,,0.00,Weather View 32 v70,2013-04-16 10:10:00,
2013-04-16 03:20:00,50.2,0.0,30.02,West,264,2.0,12.0,0,0.00,,,0.00,Weather View 32 v70,2013-04-16 10:20:00,
2013-04-16 03:30:00,50.1,0.0,30.02,West,271,2.0,12.0,0,0.00,,,0.00,Weather View 32 v70,2013-04-16 10:30:00,
2013-04-16 03:40:00,50.0,0.0,30.02,NW,304,0.0,12.0,0,0.00,,,0.00,Weather View 32 v70,2013-04-16 10:40:00,
2013-04-16 03:50:00,49.8,0.0,30.02,West,263,1.0,11.0,0,0.00,,,0.00,Weather View 32 v70,2013-04-16 10:50:00,
2013-04-16 04:00:00,49.7,0.0,30.03,West,259,0.0,7.0,0,0.00,,,0.00,Weather View 32 v70,2013-04-16 11:00:00,
2013-04-16 04:10:00,48.9,0.0,30.03,West,259,0.0,7.0,0,0.00,,,0.00,Weather View 32 v70,2013-04-16 11:10:00,
2013-04-16 04:20:00,48.4,0.0,30.03,West,259,0.0,7.0,0,0.00,,,0.00,Weather View 32 v70,2013-04-16 11:20:00,
2013-04-16 04:30:00,47.7,0.0,30.03,West,259,0.0,7.0,0,0.00,,,0.00,Weather View 32 v70,2013-04-16 11:30:00,
2013-04-16 04:40:00,47.5,0.0,30.04,West,259,0.0,7.0,0,0.00,,,0.00,Weather View 32 v70,2013-04-16 11:40:00,
2013-04-16 04:50:00,48.0,0.0,30.04,ENE,63,0.0,7.0,0,0.00,,,0.00,Weather View 32 v70,2013-04-16 11:50:00,
2013-04-16 05:00:00,47.7,0.0,30.05,North,352,0.0,5.0,0,0.00,,,0.00,Weather View 32 v70,2013-04-16 12:00:00,
2013-04-16 05:10:00,47.0,0.0,30.05,North,352,0.0,5.0,0,0.00,,,0.00,Weather View 32 v70,2013-04-16 12:10:00,
2013-04-16 05:20:00,46.3,0.0,30.06,North,352,0.0,5.0,0,0.00,,,0.00,Weather View 32 v70,2013-04-16 12:20:00,
2013-04-16 05:30:00,46.2,0.0,30.06,North,352,0.0,5.0,0,0.00,,,0.00,Weather View 32 v70,2013-04-16 12:30:00,
2013-04-16 05:40:00,47.8,0.0,30.07,North,357,0.0,5.0,0,0.00,,,0.00,Weather View 32 v70,2013-04-16 12:40:00,
2013-04-16 05:50:00,48.0,0.0,30.07,WSW,245,0.0,5.0,0,0.00,,,0.00,Weather View 32 v70,2013-04-16 12:50:00,
2013-04-16 06:00:00,48.2,0.0,30.07,North,349,0.0,9.0,0,0.00,,,0.00,Weather View 32 v70,2013-04-16 13:00:00,
2013-04-16 06:10:00,48.9,0.0,30.07,WNW,288,0.0,9.0,0,0.00,,,0.00,Weather View 32 v70,2013-04-16 13:10:00,
2013-04-16 06:20:00,49.2,0.0,30.08,NW,305,2.0,9.0,0,0.00,,,0.00,Weather View 32 v70,2013-04-16 13:20:00,
2013-04-16 06:30:00,49.6,0.0,30.08,NNW,338,0.0,9.0,0,0.00,,,0.00,Weather View 32 v70,2013-04-16 13:30:00,
2013-04-16 06:40:00,48.9,0.0,30.08,WNW,288,0.0,9.0,0,0.00,,,0.00,Weather View 32 v70,2013-04-16 13:40:00,
2013-04-16 06:50:00,49.9,0.0,30.08,WSW,240,2.0,9.0,0,0.00,,,0.00,Weather View 32 v70,2013-04-16 13:50:00,
2013-04-16 07:00:00,50.6,0.0,30.09,NW,307,2.0,9.0,0,0.00,,,0.00,Weather View 32 v70,2013-04-16 14:00:00,
2013-04-16 07:10:00,51.2,0.0,30.09,WNW,287,2.0,13.0,0,0.00,,,0.00,Weather View 32 v70,2013-04-16 14:10:00,
2013-04-16 07:20:00,51.7,0.0,30.10,NW,304,4.0,13.0,0,0.00,,,0.00,Weather View 32 v70,2013-04-16 14:20:00,
2013-04-16 07:30:00,52.1,0.0,30.10,WNW,298,1.0,13.0,0,0.00,,,0.00,Weather View 32 v70,2013-04-16 14:30:00,
2013-04-16 07:40:00,52.9,0.0,30.10,North,357,4.0,13.0,0,0.00,,,0.00,Weather View 32 v70,2013-04-16 14:40:00,
2013-04-16 07:50:00,53.7,0.0,30.11,NNW,339,1.0,13.0,0,0.00,,,0.00,Weather View 32 v70,2013-04-16 14:50:00,
2013-04-16 08:00:00,54.3,0.0,30.11,NW,318,6.0,13.0,0,0.00,,,0.00,Weather View 32 v70,2013-04-16 15:00:00,
2013-04-16 08:10:00,55.3,0.0,30.11,NNW,335,6.0,11.0,0,0.00,,,0.00,Weather View 32 v70,2013-04-16 15:10:00,
2013-04-16 08:20:00,55.9,0.0,30.11,NW,319,4.0,11.0,0,0.00,,,0.00,Weather View 32 v70,2013-04-16 15:20:00,
2013-04-16 08:30:00,56.8,0.0,30.11,NW,315,10.0,11.0,0,0.00,,,0.00,Weather View 32 v70,2013-04-16 15:30:00,
2013-04-16 08:40:00,57.3,0.0,30.11,NW,319,4.0,11.0,0,0.00,,,0.00,Weather View 32 v70,2013-04-16 15:40:00,
2013-04-16 08:50:00,58.1,0.0,30.11,North,349,7.0,11.0,0,0.00,,,0.00,Weather View 32 v70,2013-04-16 15:50:00,
2013-04-16 09:00:00,59.5,0.0,30.12,NNW,338,5.0,11.0,0,0.00,,,0.00,Weather View 32 v70,2013-04-16 16:00:00,
2013-04-16 09:10:00,59.6,0.0,30.12,NW,309,3.0,11.0,0,0.00,,,0.00,Weather View 32 v70,2013-04-16 16:10:00,
2013-04-16 09:20:00,60.2,0.0,30.12,North,352,7.0,12.0,0,0.00,,,0.00,Weather View 32 v70,2013-04-16 16:20:00,
2013-04-16 09:30:00,60.8,0.0,30.11,WNW,293,4.0,13.0,0,0.00,,,0.00,Weather View 32 v70,2013-04-16 16:30:00,
2013-04-16 09:40:00,61.6,0.0,30.12,NW,318,4.0,13.0,0,0.00,,,0.00,Weather View 32 v70,2013-04-16 16:40:00,
2013-04-16 09:50:00,62.8,0.0,30.12,West,281,2.0,13.0,0,0.00,,,0.00,Weather View 32 v70,2013-04-16 16:50:00,
2013-04-16 10:00:00,63.1,0.0,30.12,WNW,300,6.0,13.0,0,0.00,,,0.00,Weather View 32 v70,2013-04-16 17:00:00,
2013-04-16 10:10:00,63.9,0.0,30.12,NW,322,3.0,13.0,0,0.00,,,0.00,Weather View 32 v70,2013-04-16 17:10:00,
2013-04-16 10:20:00,64.0,0.0,30.13,West,263,5.0,13.0,0,0.00,,,0.00,Weather View 32 v70,2013-04-16 17:20:00,
2013-04-16 10:30:00,65.1,0.0,30.12,NW,305,6.0,13.0,0,0.00,,,0.00,Weather View 32 v70,2013-04-16 17:30:00,
2013-04-16 10:40:00,65.6,0.0,30.12,NW,314,5.0,13.0,0,0.00,,,0.00,Weather View 32 v70,2013-04-16 17:40:00,
2013-04-16 10:50:00,64.8,0.0,30.12,NW,325,4.0,14.0,0,0.00,,,0.00,Weather View 32 v70,2013-04-16 17:50:00,
2013-04-16 11:00:00,65.7,0.0,30.12,West,273,6.0,16.0,0,0.00,,,0.00,Weather View 32 v70,2013-04-16 18:00:00,
2013-04-16 11:05:00,65.7,0.0,30.12,West,273,6.0,16.0,0,0.00,,,0.00,Weather View 32 v70,2013-04-16 18:05:00,
2013-04-16 11:20:00,66.7,0.0,30.12,West,259,2.0,16.0,0,0.00,,,0.00,Weather View 32 v70,2013-04-16 18:20:00,
2013-04-16 11:30:00,67.2,0.0,30.12,West,267,8.0,18.0,0,0.00,,,0.00,Weather View 32 v70,2013-04-16 18:30:00,
2013-04-16 11:40:00,68.1,0.0,30.12,West,262,3.0,18.0,0,0.00,,,0.00,Weather View 32 v70,2013-04-16 18:40:00,
2013-04-16 11:50:00,68.5,0.0,30.12,SW,228,4.0,18.0,0,0.00,,,0.00,Weather View 32 v70,2013-04-16 18:50:00,
2013-04-16 12:00:00,69.7,0.0,30.12,West,278,7.0,18.0,0,0.00,,,0.00,Weather View 32 v70,2013-04-16 19:00:00,
2013-04-16 12:06:00,69.7,0.0,30.12,West,278,7.0,18.0,0,0.00,,,0.00,Weather View 32 v70,2013-04-16 19:06:00,
2013-04-16 12:20:00,69.6,0.0,30.12,NW,309,4.0,18.0,0,0.00,,,0.00,Weather View 32 v70,2013-04-16 19:20:00,
2013-04-16 12:30:00,71.5,0.0,30.12,WNW,295,5.0,15.0,0,0.00,,,0.00,Weather View 32 v70,2013-04-16 19:30:00,
2013-04-16 12:40:00,70.6,0.0,30.12,NNW,345,4.0,15.0,0,0.00,,,0.00,Weather View 32 v70,2013-04-16 19:40:00,
2013-04-16 12:50:00,70.8,0.0,30.12,NW,314,8.0,15.0,0,0.00,,,0.00,Weather View 32 v70,2013-04-16 19:50:00,
2013-04-16 13:00:00,70.8,0.0,30.11,NW,305,6.0,15.0,0,0.00,,,0.00,Weather View 32 v70,2013-04-16 20:00:00,
2013-04-16 13:06:00,70.8,0.0,30.11,NW,305,6.0,15.0,0,0.00,,,0.00,Weather View 32 v70,2013-04-16 20:06:00,
2013-04-16 13:20:00,72.6,0.0,30.11,NNW,343,7.0,16.0,0,0.00,,,0.00,Weather View 32 v70,2013-04-16 20:20:00,
2013-04-16 13:30:00,71.0,0.0,30.11,NW,319,6.0,16.0,0,0.00,,,0.00,Weather View 32 v70,2013-04-16 20:30:00,
2013-04-16 13:40:00,72.0,0.0,30.11,West,269,5.0,16.0,0,0.00,,,0.00,Weather View 32 v70,2013-04-16 20:40:00,
2013-04-16 13:50:00,71.1,0.0,30.11,NNW,336,7.0,18.0,0,0.00,,,0.00,Weather View 32 v70,2013-04-16 20:50:00,
2013-04-16 14:00:00,72.8,0.0,30.11,NW,322,12.0,18.0,0,0.00,,,0.00,Weather View 32 v70,2013-04-16 21:00:00,
2013-04-16 14:07:00,72.8,0.0,30.11,NW,322,12.0,18.0,0,0.00,,,0.00,Weather View 32 v70,2013-04-16 21:07:00,
2013-04-16 14:20:00,71.1,0.0,30.11,NW,307,6.0,18.0,0,0.00,,,0.00,Weather View 32 v70,2013-04-16 21:20:00,
2013-04-16 14:30:00,71.5,0.0,30.11,WNW,285,1.0,18.0,0,0.00,,,0.00,Weather View 32 v70,2013-04-16 21:30:00,
2013-04-16 14:40:00,72.1,0.0,30.11,NW,305,5.0,18.0,0,0.00,,,0.00,Weather View 32 v70,2013-04-16 21:40:00,
2013-04-16 14:50:00,71.0,0.0,30.10,NNW,332,3.0,24.0,0,0.00,,,0.00,Weather View 32 v70,2013-04-16 21:50:00,
2013-04-16 15:00:00,71.5,0.0,30.10,West,276,2.0,24.0,0,0.00,,,0.00,Weather View 32 v70,2013-04-16 22:00:00,
2013-04-16 15:07:00,71.5,0.0,30.10,West,276,2.0,24.0,0,0.00,,,0.00,Weather View 32 v70,2013-04-16 22:07:00,
2013-04-16 15:20:00,71.3,0.0,30.09,East,90,1.0,24.0,0,0.00,,,0.00,Weather View 32 v70,2013-04-16 22:20:00,
2013-04-16 15:30:00,71.9,0.0,30.09,West,266,3.0,24.0,0,0.00,,,0.00,Weather View 32 v70,2013-04-16 22:30:00,
2013-04-16 15:40:00,71.6,0.0,30.09,North,350,4.0,24.0,0,0.00,,,0.00,Weather View 32 v70,2013-04-16 22:40:00,
2013-04-16 15:50:00,71.9,0.0,30.08,East,89,6.0,18.0,0,0.00,,,0.00,Weather View 32 v70,2013-04-16 22:50:00,
2013-04-16 16:00:00,71.5,0.0,30.08,NNE,13,5.0,18.0,0,0.00,,,0.00,Weather View 32 v70,2013-04-16 23:00:00,
2013-04-16 16:08:00,71.5,0.0,30.08,NNE,13,5.0,18.0,0,0.00,,,0.00,Weather View 32 v70,2013-04-16 23:08:00,
2013-04-16 16:20:00,71.2,0.0,30.08,ENE,69,3.0,18.0,0,0.00,,,0.00,Weather View 32 v70,2013-04-16 23:20:00,
2013-04-16 16:30:00,71.3,0.0,30.08,NW,318,6.0,16.0,0,0.00,,,0.00,Weather View 32 v70,2013-04-16 23:30:00,
2013-04-16 16:40:00,70.9,0.0,30.07,WSW,250,6.0,16.0,0,0.00,,,0.00,Weather View 32 v70,2013-04-16 23:40:00,
2013-04-16 16:50:00,71.6,0.0,30.07,NW,319,4.0,16.0,0,0.00,,,0.00,Weather View 32 v70,2013-04-16 23:50:00,
2013-04-16 17:00:00,71.8,0.0,30.07,WNW,284,3.0,16.0,0,0.00,,,0.00,Weather View 32 v70,2013-04-17 00:00:00,
2013-04-16 17:08:00,71.8,0.0,30.07,WNW,284,3.0,16.0,0,0.00,,,0.00,Weather View 32 v70,2013-04-17 00:08:00,
2013-04-16 17:20:00,70.3,0.0,30.07,WNW,293,5.0,13.0,0,0.00,,,0.00,Weather View 32 v70,2013-04-17 00:20:00,
2013-04-16 17:30:00,70.1,0.0,30.07,NNW,347,2.0,17.0,0,0.00,,,0.00,Weather View 32 v70,2013-04-17 00:30:00,
2013-04-16 17:40:00,70.2,0.0,30.08,WNW,298,8.0,17.0,0,0.00,,,0.00,Weather View 32 v70,2013-04-17 00:40:00,
2013-04-16 17:50:00,69.4,0.0,30.08,West,278,6.0,17.0,0,0.00,,,0.00,Weather View 32 v70,2013-04-17 00:50:00,
2013-04-16 18:00:00,68.9,0.0,30.08,NW,322,5.0,17.0,0,0.00,,,0.00,Weather View 32 v70,2013-04-17 01:00:00,
2013-04-16 18:09:00,68.9,0.0,30.08,NW,322,5.0,17.0,0,0.00,,,0.00,Weather View 32 v70,2013-04-17 01:09:00,
2013-04-16 18:20:00,68.7,0.0,30.08,NW,321,1.0,17.0,0,0.00,,,0.00,Weather View 32 v70,2013-04-17 01:20:00,
2013-04-16 18:30:00,68.0,0.0,30.08,North,8,2.0,13.0,0,0.00,,,0.00,Weather View 32 v70,2013-04-17 01:30:00,
2013-04-16 18:40:00,67.1,0.0,30.08,North,359,7.0,13.0,0,0.00,,,0.00,Weather View 32 v70,2013-04-17 01:40:00,
2013-04-16 18:50:00,66.3,0.0,30.09,NW,326,5.0,14.0,0,0.00,,,0.00,Weather View 32 v70,2013-04-17 01:50:00,
2013-04-16 19:00:00,66.0,0.0,30.09,North,359,7.0,14.0,0,0.00,,,0.00,Weather View 32 v70,2013-04-17 02:00:00,
2013-04-16 19:10:00,65.3,0.0,30.09,NW,304,5.0,14.0,0,0.00,,,0.00,Weather View 32 v70,2013-04-17 02:10:00,
2013-04-16 19:20:00,64.6,0.0,30.10,NW,319,4.0,14.0,0,0.00,,,0.00,Weather View 32 v70,2013-04-17 02:20:00,
2013-04-16 19:30:00,63.9,0.0,30.10,North,4,5.0,14.0,0,0.00,,,0.00,Weather View 32 v70,2013-04-17 02:30:00,
2013-04-16 19:40:00,63.8,0.0,30.10,NNW,338,4.0,14.0,0,0.00,,,0.00,Weather View 32 v70,2013-04-17 02:40:00,
2013-04-16 19:50:00,63.1,0.0,30.10,North,4,4.0,14.0,0,0.00,,,0.00,Weather View 32 v70,2013-04-17 02:50:00,
2013-04-16 20:00:00,62.7,0.0,30.11,North,354,7.0,13.0,0,0.00,,,0.00,Weather View 32 v70,2013-04-17 03:00:00,
2013-04-16 20:10:00,62.3,0.0,30.11,NW,322,7.0,14.0,0,0.00,,,0.00,Weather View 32 v70,2013-04-17 03:10:00,
2013-04-16 20:20:00,62.1,0.0,30.12,NW,316,3.0,18.0,0,0.00,,,0.00,Weather View 32 v70,2013-04-17 03:20:00,
2013-04-16 20:30:00,61.7,0.0,30.12,NNW,336,3.0,18.0,0,0.00,,,0.00,Weather View 32 v70,2013-04-17 03:30:00,
2013-04-16 20:40:00,61.3,0.0,30.13,NNE,17,5.0,18.0,0,0.00,,,0.00,Weather View 32 v70,2013-04-17 03:40:00,
2013-04-16 20:50:00,60.9,0.0,30.13,WNW,300,3.0,18.0,0,0.00,,,0.00,Weather View 32 v70,2013-04-17 03:50:00,
2013-04-16 21:00:00,60.8,0.0,30.13,NNW,335,7.0,18.0,0,0.00,,,0.00,Weather View 32 v70,2013-04-17 04:00:00,
2013-04-16 21:10:00,60.7,0.0,30.14,NW,312,4.0,18.0,0,0.00,,,0.00,Weather View 32 v70,2013-04-17 04:10:00,
2013-04-16 21:20:00,60.2,0.0,30.14,NW,326,2.0,14.0,0,0.00,,,0.00,Weather View 32 v70,2013-04-17 04:20:00,
2013-04-16 21:30:00,59.7,0.0,30.15,NW,305,3.0,14.0,0,0.00,,,0.00,Weather View 32 v70,2013-04-17 04:30:00,
2013-04-16 21:40:00,59.6,0.0,30.16,NW,304,1.0,16.0,0,0.00,,,0.00,Weather View 32 v70,2013-04-17 04:40:00,
2013-04-16 21:50:00,59.5,0.0,30.16,NW,311,7.0,16.0,0,0.00,,,0.00,Weather View 32 v70,2013-04-17 04:50:00,
2013-04-16 22:00:00,59.5,0.0,30.16,WNW,291,3.0,16.0,0,0.00,,,0.00,Weather View 32 v70,2013-04-17 05:00:00,
2013-04-16 22:10:00,59.4,0.0,30.17,NW,323,2.0,16.0,0,0.00,,,0.00,Weather View 32 v70,2013-04-17 05:10:00,
2013-04-16 22:20:00,59.2,0.0,30.17,WNW,285,1.0,16.0,0,0.00,,,0.00,Weather View 32 v70,2013-04-17 05:20:00,
2013-04-16 22:30:00,59.0,0.0,30.18,North,353,4.0,16.0,0,0.00,,,0.00,Weather View 32 v70,2013-04-17 05:30:00,
2013-04-16 22:40:00,58.6,0.0,30.18,North,359,4.0,11.0,0,0.00,,,0.00,Weather View 32 v70,2013-04-17 05:40:00,
2013-04-16 22:50:00,58.6,0.0,30.18,NNW,342,6.0,10.0,0,0.00,,,0.00,Weather View 32 v70,2013-04-17 05:50:00,
2013-04-16 23:00:00,58.4,0.0,30.19,North,359,3.0,12.0,0,0.00,,,0.00,Weather View 32 v70,2013-04-17 06:00:00,
2013-04-16 23:10:00,58.2,0.0,30.19,NW,319,3.0,12.0,0,0.00,,,0.00,Weather View 32 v70,2013-04-17 06:10:00,
2013-04-16 23:20:00,58.3,0.0,30.19,North,353,4.0,12.0,0,0.00,,,0.00,Weather View 32 v70,2013-04-17 06:20:00,
2013-04-16 23:30:00,57.9,0.0,30.20,WNW,293,0.0,12.0,0,0.00,,,0.00,Weather View 32 v70,2013-04-17 06:30:00,
2013-04-16 23:40:00,57.6,0.0,30.20,NNW,328,0.0,12.0,0,0.00,,,0.00,Weather View 32 v70,2013-04-17 06:40:00,
2013-04-16 23:50:00,57.0,0.0,30.20,WNW,297,3.0,12.0,0,0.00,,,0.00,Weather View 32 v70,2013-04-17 06:50:00,